Mount Ida, AR

1:30 AM CDT on March 30, 2017 (GMT -0500)
Mount Ida

Weather History for KMWT - March, 2013

Change the Weather History Date:

Friday, March 29, 2013

  Actual Average (KHOT) Record (KHOT)
Temperature  
Mean Temperature 60 °F -  
Max Temperature 66 °F 71 °F 88 °F (1967)
Min Temperature 55 °F 46 °F 30 °F (1955)
Degree Days  
Heating Degree Days 6    
Growing Degree Days 10 (Base 50)    
Moisture  
Dew Point 54 °F    
Average Humidity 81    
Maximum Humidity 100    
Minimum Humidity 52    
Precipitation  
Precipitation 0.11 in - - ()
Sea Level Pressure  
Sea Level Pressure 30.13 in    
Wind  
Wind Speed 2 mph (NNE)    
Max Wind Speed 6 mph    
Max Gust Speed -    
Visibility 7 miles    
Events Fog , Rain    
Averages and records for this station are not official NWS values.
T = Trace of Precipitation, MM = Missing Value Source: NWS Daily Summary

Daily Weather History Graph

Daily Weather History Graph

Search for Another Location

Airport or City:

Trip Planner

Search our weather history database for the weather conditions in past years. The results will help you decide how hot, cold, wet, or windy it might be!

Date:

Astronomy

Mar. 29, 2013 Rise Set
Actual Time 7:05 AM CDT 7:33 PM CDT
Civil Twilight 6:39 AM CDT 7:58 PM CDT
Nautical Twilight 6:10 AM CDT 8:28 PM CDT
Astronomical Twilight 5:40 AM CDT 8:58 PM CDT
Moon 10:25 PM CDT (3/29) 8:21 AM CDT (3/29)
Length of Visible Light 13h 18m
Length of Day
12h 28m
Waning Gibbous, 93% of the Moon is Illuminated
Mar 29
Waning Gibbous
Apr 2
Last Quarter
Apr 10
New
Apr 18
First Quarter
Apr 25
Full

Hourly Weather History & Observations

Time (CDT) Temp. Dew Point Humidity Pressure Visibility Wind Dir Wind Speed Gust Speed Precip Events Conditions
12:53 AM 63.0 °F 45.0 °F 52% 30.16 in 10.0 mi Variable 3.5 mph - N/A   Mostly Cloudy
1:53 AM 62.1 °F 44.1 °F 52% 30.15 in 10.0 mi Calm Calm - N/A   Scattered Clouds
2:53 AM 59.0 °F 46.9 °F 64% 30.14 in 10.0 mi Calm Calm - N/A   Overcast
3:53 AM 57.9 °F 48.0 °F 70% 30.12 in 10.0 mi Calm Calm - N/A   Overcast
4:53 AM 62.1 °F 48.9 °F 62% 30.11 in 10.0 mi Variable 3.5 mph - N/A   Overcast
5:53 AM 60.1 °F 50.0 °F 69% 30.12 in 10.0 mi Variable 3.5 mph - N/A   Overcast
6:53 AM 57.9 °F 51.1 °F 78% 30.12 in 10.0 mi Variable 3.5 mph - 0.01 in   Overcast
7:53 AM 59.0 °F 52.0 °F 78% 30.12 in 10.0 mi Variable 4.6 mph - N/A   Mostly Cloudy
8:24 AM 60.8 °F 51.8 °F 72% 30.15 in 10.0 mi Variable 4.6 mph - N/A   Mostly Cloudy
8:53 AM 60.1 °F 52.0 °F 75% 30.14 in 10.0 mi Variable 5.8 mph - N/A   Overcast
9:53 AM 62.1 °F 54.0 °F 75% 30.15 in 10.0 mi Variable 4.6 mph - N/A   Overcast
10:53 AM 64.0 °F 54.0 °F 70% 30.15 in 10.0 mi Variable 5.8 mph - N/A   Overcast
11:53 AM 64.9 °F 55.0 °F 70% 30.16 in 10.0 mi NNW 3.5 mph - N/A   Overcast
12:53 PM 63.0 °F 55.0 °F 75% 30.15 in 10.0 mi East 3.5 mph - N/A   Overcast
1:53 PM 62.1 °F 55.0 °F 78% 30.14 in 10.0 mi Calm Calm - N/A   Overcast
2:53 PM 63.0 °F 55.0 °F 75% 30.14 in 10.0 mi Calm Calm - N/A   Overcast
3:49 PM 62.6 °F 55.4 °F 77% 30.13 in 10.0 mi Calm Calm - N/A   Overcast
3:53 PM 63.0 °F 55.0 °F 75% 30.12 in 10.0 mi Calm Calm - N/A   Overcast
4:34 PM 62.6 °F 55.4 °F 77% 30.11 in 10.0 mi Calm Calm - N/A   Overcast
4:53 PM 62.1 °F 55.0 °F 78% 30.09 in 10.0 mi Calm Calm - N/A   Overcast
5:06 PM 62.6 °F 55.4 °F 77% 30.09 in 10.0 mi Variable 3.5 mph - N/A   Mostly Cloudy
5:53 PM 64.0 °F 55.9 °F 75% 30.08 in 10.0 mi Calm Calm - N/A   Clear
6:53 PM 62.1 °F 55.9 °F 80% 30.10 in 10.0 mi Calm Calm - N/A   Scattered Clouds
7:53 PM 63.0 °F 57.0 °F 81% 30.12 in 10.0 mi Variable 5.8 mph - 0.00 in Rain Light Rain
8:30 PM 59.0 °F 57.2 °F 94% 30.12 in 4.0 mi Calm Calm - 0.05 in Rain Light Rain
8:43 PM 59.0 °F 57.2 °F 94% 30.11 in 3.0 mi Calm Calm - 0.05 in Rain Light Rain
8:53 PM 57.9 °F 57.9 °F 100% 30.12 in 2.5 mi NNE 3.5 mph - 0.06 in Rain Rain
9:20 PM 57.2 °F 57.2 °F 100% 30.13 in 3.0 mi Calm Calm - 0.02 in Rain Light Rain
9:25 PM 57.2 °F 57.2 °F 100% 30.12 in 2.5 mi Calm Calm - 0.02 in Rain Light Rain
9:53 PM 57.9 °F 57.9 °F 100% 30.12 in 2.0 mi Calm Calm - 0.03 in Rain Light Rain
10:25 PM 57.2 °F 57.2 °F 100% 30.13 in 1.5 mi Calm Calm - 0.01 in   Mostly Cloudy
10:49 PM 57.2 °F 57.2 °F 100% 30.13 in 0.8 mi Calm Calm - 0.01 in   Mostly Cloudy
10:53 PM 57.0 °F 57.0 °F 100% 30.12 in 0.5 mi Calm Calm - 0.01 in Fog Fog
11:26 PM 55.4 °F 55.4 °F 100% 30.12 in 0.2 mi Calm Calm - N/A Fog Fog
11:36 PM 57.2 °F 55.4 °F 94% 30.13 in 0.5 mi Calm Calm - N/A Fog Fog
11:53 PM 57.0 °F 55.9 °F 96% 30.11 in 0.5 mi Calm Calm - N/A Fog Fog